Location: CNYAC Observatory
(43.2150°N, 74.9500°W)
Time: 11:28:51
(UTC-04:00)

Daily predictions for brighter satellites

Satellite Brightness Start Highest point End
(mag) Time Altitude Azimuth Time Altitude Azimuth Time Altitude Azimuth
Cosmos 1763 Rocket 3.9 20:54:02 10° S 20:59:03 44° ESE 21:04:03 10° NNE
Cosmos 304 Rocket 4.3 20:54:23 10° SSW 20:59:10 68° WNW 21:03:59 10° NNE
Cosmos 1455 Rocket 4.1 20:59:08 10° NNE 21:02:56 28° ENE 21:06:44 10° SE
Cosmos 841 Rocket 4.1 21:00:53 10° SSE 21:05:35 35° ESE 21:10:21 10° NE
Cosmos 1725 Rocket 4.4 21:01:30 10° SSW 21:07:40 70° W 21:13:54 10° N
deb Kosmos-1763 4.1 21:05:24 10° SSW 21:09:05 87° ESE 21:12:48 10° NNE
BREEZE-M DEB (TANK) 3.1 21:06:33 10° WNW 21:09:23 25° SW 21:11:10 10° SSE
Tsikada Rocket 4.4 21:03:32 10° NNW 21:09:57 74° W 21:16:20 10° S
Cosmos 1378 Rocket 4.2 21:05:47 10° SSW 21:10:02 60° W 21:14:19 10° N
BREEZE-M DEB (TANK) 3.0 21:08:10 10° WNW 21:10:15 37° SSW 21:13:41 10° SE
Cosmos 2360 Rocket 3.0 21:06:39 10° NNW 21:11:55 38° ENE 21:17:10 10° SE
USA 234 3.4 21:06:56 10° ENE 21:13:20 53° SE 21:19:43 10° SSW
Cosmos 1980 Rocket 3.9 21:09:34 10° NW 21:14:25 30° WSW 21:19:17 10° SSW
Cosmos 2219 Rocket 4.2 21:11:34 10° N 21:14:39 15° NE 21:17:44 10° ENE
Cosmos 1975 Rocket 3.0 21:10:52 10° S 21:15:10 72° E 21:19:29 10° NNE
NOSS 3-2 (A) 4.1 21:09:46 10° SW 21:15:39 64° NW 21:22:15 10° NNE
ERS-2 3.2 21:12:17 10° S 21:15:49 44° W 21:19:23 10° NNW
Okean 1 Rocket 4.1 21:12:07 10° NNW 21:16:19 47° W 21:20:27 10° SSW
Abrixas rocket 2.7 21:13:21 10° WSW 21:16:33 63° NNW 21:19:46 10° ENE
Cosmos 1975 3.3 21:14:01 10° NNW 21:18:01 61° W 21:21:58 10° S
Cosmos 1666 3.0 21:14:29 10° NNW 21:18:21 72° W 21:22:12 10° S
USA 186 4.1 21:15:47 10° SSW 21:18:32 25° W 21:21:25 10° NW
Meteor 1-19 Rocket 4.3 21:15:23 10° S 21:21:17 77° E 21:27:12 10° NNE
NOSS 3-2 (C) 3.7 21:16:22 10° SW 21:22:18 77° NW 21:28:57 10° NE
ISS -1.6 21:20:14 10° W 21:23:08 29° NNW 21:26:03 10° NE
Tiangong 2 1.0 21:21:18 10° W 21:24:28 80° S 21:27:37 10° E
Cosmos 2084 3.6 21:20:36 10° SW 21:24:55 77° NW 21:29:01 10° NE
Meteor 2-9 Rocket 4.2 21:21:37 10° N 21:26:57 67° ENE 21:32:22 10° SSE
Shenzhou-11 Module 2.2 21:24:21 10° W 21:27:17 53° SSW 21:29:32 15° ESE
MetOp-A 4.3 21:23:41 10° SSE 21:28:56 61° ENE 21:34:13 10° N
Cosmos 292 Rocket 3.9 21:25:20 10° S 21:29:57 53° ESE 21:34:35 10° NNE
Cosmos 1544 Rocket 3.8 21:26:10 10° N 21:30:33 56° E 21:34:35 12° SSE
ATLAS CENTAUR R/B 4.3 21:25:14 10° SW 21:31:49 88° SE 21:52:49 10° NE
ERS-1 Rocket 3.6 21:27:42 12° SE 21:31:58 42° ENE 21:36:42 10° N
Cosmos 1743 3.6 21:29:56 10° NNW 21:33:39 49° W 21:37:19 10° S
CENTAUR R/B 2.5 21:32:37 10° SSW 21:38:29 68° ESE 21:45:15 10° NE
Iridium 2 3.8 21:34:57 10° S 21:38:46 81° W 21:42:37 10° N
SJ 16-02 2.2 21:36:21 10° N 21:40:28 36° ENE 21:43:26 17° SE
Cosmos 1898 Rocket 4.4 21:36:00 10° NNW 21:41:03 46° WSW 21:46:07 10° S
Cosmos 2333 Rocket 4.0 21:36:59 10° N 21:41:10 20° NE 21:45:21 10° E
Helios 1B rocket 4.1 21:38:55 10° NE 21:41:41 17° E 21:42:55 15° ESE
CZ-4C R/B 3.7 21:37:10 10° NNW 21:43:44 41° NE 21:50:36 12° ESE
COSMOS 2428 3.9 21:39:30 10° N 21:44:30 31° NE 21:48:38 14° ESE
Cosmos 1356 3.5 21:42:02 12° S 21:45:06 54° E 21:48:31 10° NNE
Meteor 1-23 Rocket 4.5 21:39:57 10° SSE 21:45:17 49° E 21:50:38 10° NNE
Cosmos 1814 Rocket 4.2 21:40:17 10° SSW 21:45:32 78° WNW 21:50:53 10° NNE
Cosmos 1536 Rocket 3.8 21:44:47 13° SSE 21:48:36 50° E 21:52:56 10° NNE
SPOT 1/Viking Rocket 4.3 21:45:41 16° SE 21:49:16 38° ENE 21:54:00 10° N
Resurs 01 Rocket 3.7 21:48:14 10° SSW 21:51:49 24° W 21:55:25 10° NW
Cosmos 1072 Rocket 4.5 21:46:05 10° S 21:52:24 78° E 21:58:41 10° N
H-2A R/B 1.9 21:48:25 14° SSE 21:52:37 80° ENE 21:57:42 10° N
Cosmos 1833 4.2 21:47:01 10° SSW 21:52:44 73° ESE 21:58:24 10° NNE
Cosmos 1125 Rocket 4.1 21:49:22 10° N 21:54:24 43° ENE 21:57:45 19° SE
Meteor 2-4 Rocket 3.8 21:49:23 10° SSW 21:54:50 81° W 22:00:29 10° N
SL-08 RB Rocket 3.7 21:52:37 16° SSE 21:56:17 86° ENE 22:00:54 10° NNW
Aureole 2 Rocket 2.6 21:56:21 10° NNW 21:59:11 49° WSW 22:00:42 22° S
Nadezhda 4 Rocket 4.4 21:53:07 10° N 21:59:14 49° ENE 22:03:30 20° SE
Lacrosse 5 rocket 1.4 21:55:37 10° NW 21:59:59 80° NE 22:02:25 24° SE
ARGOS 3.4 21:56:26 12° S 22:01:30 70° WSW 22:06:55 10° NNW
Cosmos 1515 3.6 22:00:44 14° S 22:03:54 81° E 22:07:46 10° N
Cosmos 2322 Rocket 3.4 22:01:42 10° NW 22:06:46 35° WSW 22:11:48 10° S
Cosmos 2322 3.7 22:01:29 10° NNW 22:07:15 75° ENE 22:10:59 23° SSE
Cosmos 2237 Rocket 4.1 22:06:36 10° N 22:10:40 20° NE 22:14:39 10° E
DMSP B5D2-2 4.1 22:06:57 10° NNE 22:12:12 62° E 22:16:12 17° S
SL-16 R/B 3.8 22:12:05 10° NW 22:16:50 28° WSW 22:21:34 10° SSW
CARTOSAT-1 4.3 22:19:05 27° ESE 22:20:49 40° ENE 22:24:53 10° N
Landsat 7 4.0 22:19:00 27° SE 22:21:23 58° ENE 22:26:04 10° N
Cosmos 1340 Rocket 4.1 22:19:51 10° SW 22:23:41 40° WNW 22:27:34 10° N
BREEZE-M R/B 4.3 22:25:22 10° WNW 22:28:11 25° NNW 22:30:21 10° NE
Cosmos 1025 Rocket 3.0 22:27:28 31° SSE 22:29:23 63° E 22:33:43 10° NNE
Cosmos 540 Rocket 3.7 22:24:31 10° SSW 22:29:40 72° WNW 22:34:52 10° NNE
Cosmos 2034 Rocket 4.1 22:29:18 11° SSW 22:35:10 75° W 22:41:21 10° N
Cosmos 2219 3.5 22:34:42 28° SSE 22:37:21 47° ESE 22:42:50 10° NE
Cosmos 2237 4.4 22:32:18 10° NNW 22:37:58 65° WSW 22:41:04 27° S
Cosmos 1606 Rocket 4.4 22:33:50 10° N 22:37:59 38° ENE 22:39:09 32° ESE
SPOT 5 2.8 22:37:54 30° S 22:40:00 70° WSW 22:44:37 10° NNW
Terra 2.0 22:38:20 35° SE 22:40:10 59° ENE 22:44:51 10° N
USA 245 4.4 22:38:32 23° SSW 22:40:23 40° W 22:44:36 10° NNW
Cosmos 1544 3.4 22:37:01 10° N 22:40:38 49° E 22:41:11 44° ESE
Spot 1 3.8 22:44:11 45° SSE 22:45:23 78° ENE 22:49:28 10° N
Cosmos 1766 4.2 22:42:16 10° N 22:45:55 33° ENE 22:46:27 32° E
Intercosmos 25 4.5 22:52:55 29° E 22:52:55 29° E 22:55:51 10° NNE
Helios 1A 3.8 22:51:27 28° SSW 22:53:12 43° W 22:57:12 10° NNW
Abrixas rocket 4.0 22:50:24 10° WNW 22:53:20 31° N 22:55:58 12° ENE
Okean 2 4.1 22:52:13 23° SSW 22:54:32 52° W 22:58:39 10° N
CZ-2C R/B 3.3 22:49:31 10° NNE 22:54:47 40° E 22:56:06 35° SE
Cosmos 2360 Rocket 3.4 22:50:50 10° NW 22:55:49 33° WSW 22:58:58 19° SSW
USA 234 4.0 22:49:59 10° NE 22:56:20 54° NNW 23:02:40 10° WSW
YAOGAN 11 4.2 22:55:17 45° SE 22:56:31 67° ENE 23:01:02 10° N
BREEZE M DEB (TANK) 4.1 22:52:16 10° WNW 22:57:38 23° WSW 22:58:38 21° SW
Cosmos 2219 Rocket 2.1 22:53:56 10° NNW 22:59:33 79° ENE 23:01:38 40° SE
ISS -1.0 22:57:58 10° NW 23:00:21 18° N 23:02:44 10° NE
Cosmos 2333 4.3 22:55:17 10° NNW 23:00:55 68° WSW 23:03:13 36° S
Tiangong 2 2.0 22:58:01 10° W 23:00:16 41° WSW 23:00:16 41° WSW
Cosmos 1634 Rocket 4.0 22:58:16 32° S 23:01:20 74° E 23:07:40 10° NNE
Cosmos 1356 Rocket 4.3 23:05:19 25° SW 23:07:32 48° WNW 23:11:43 10° N
Spot 4 4.4 23:09:03 38° ESE 23:10:12 45° ENE 23:14:50 10° N
COSMOS 2455 3.4 23:10:58 36° ESE 23:11:34 37° ESE 23:17:03 10° NE
ASTRO F (AKARI) 4.4 23:09:52 10° NNE 23:12:55 76° NNE 23:12:55 76° NNE
Nimbus 7 Rocket 4.3 23:08:18 10° NNE 23:14:14 85° ESE 23:16:58 34° SSW
Cosmos 1892 Rocket 3.4 23:14:31 61° SE 23:14:55 65° E 23:19:14 10° NNE
Helios 1B rocket 3.6 23:13:15 10° N 23:17:09 40° WNW 23:19:16 23° SW
CZ-2C R/B 3.1 23:16:09 44° S 23:17:57 84° WSW 23:23:39 10° NNW
Cosmos 192 4.2 23:16:53 49° S 23:18:13 82° ESE 23:23:08 10° NNE
SJ 16-02 3.2 23:15:25 10° NW 23:18:49 22° W 23:20:26 18° SW
Cosmos 1805 3.4 23:16:39 10° N 23:20:32 59° E 23:20:32 59° E
Cosmos 1842 3.5 23:20:57 53° ENE 23:20:57 53° ENE 23:24:30 10° NNE
Cosmos 1538 Rocket 4.0 23:24:21 53° SE 23:25:06 59° ESE 23:30:16 10° NNE
Cosmos 2228 2.8 23:21:05 10° N 23:25:23 77° E 23:25:44 71° SE
Cosmos 2333 Rocket 2.2 23:20:20 10° NNW 23:26:02 74° WSW 23:27:41 47° S
Cosmos 1470 4.4 23:23:11 10° NNE 23:26:07 22° ENE 23:26:07 22° ENE
SL-16 R/B 3.5 23:23:29 10° N 23:28:27 30° NE 23:30:55 22° E
Okean 1-7 Rocket 4.2 23:27:08 37° SW 23:28:37 54° W 23:33:06 10° N
COSMOS 2428 3.4 23:23:32 10° NW 23:28:52 43° WSW 23:30:38 33° SSW
CENTAUR R/B 4.4 23:24:14 10° W 23:29:46 31° NW 23:36:02 10° NNE
CZ-4C R/B 3.2 23:25:32 10° NW 23:32:41 58° WSW 23:35:47 37° S
H-2A R/B 4.5 23:30:52 10° WSW 23:32:42 12° W 23:34:33 10° WNW
Cosmos 1726 Rocket 3.6 23:28:56 10° NNW 23:33:19 67° W 23:33:54 59° SW
Cosmos 1980 3.6 23:32:09 10° NNW 23:37:51 85° ENE 23:39:12 54° SSE
Lacrosse 5 rocket 3.7 23:36:27 10° W 23:38:05 13° WSW 23:38:05 13° WSW
Cosmos 2180 Rocket 4.5 23:38:13 47° SSE 23:40:06 72° E 23:46:21 10° NNE
COBE Rocket 4.0 23:36:32 10° NNE 23:41:10 53° E 23:41:17 53° ESE
ERBS 3.8 23:41:06 10° NNW 23:44:10 33° NNE 23:44:10 33° NNE
Cosmos 2297 Rocket 2.2 23:44:24 56° SSE 23:45:16 64° ESE 23:50:52 10° NNE
Cosmos 1953 3.0 23:44:17 10° N 23:47:46 44° ENE 23:47:46 44° ENE
Cosmos 2227 Rocket 2.1 23:47:43 56° S 23:48:53 76° ESE 23:54:34 10° NNE
Cosmos 1707 4.4 23:49:50 25° ENE 23:49:50 25° ENE 23:52:16 10° NNE
Cosmos 2058 Rocket 3.2 23:45:58 10° NNW 23:50:27 63° W 23:50:47 61° WSW
SL-19 R/B 4.5 23:47:46 10° NNE 23:53:52 62° ESE 23:54:58 52° SE
